[[{"header":{"parameterUnit":"m.s-1","parameterCategory":1,"la1":30.2991,"la2":30.254,"lo1":-89.0895,"lo2":-89.0444,"dy":0.0017,"dx":0.0017,"nx":28,"ny":28,"refTime":"2025-04-12T09:00:00:Z","depth":0,"parameterNumber":2,"parameterNumberName":"U-component_of_WINDS"},"data":[0,0,0,0,0,0,0,0,0,0,0,0,0,0,0,0,0,0,0,0,0,0,0,0,0,0,0,0,0,0,0,0,0,0,0,0,0,0,0,0,0,0,0,0,0,0,0,0,0,0,0,0,0,0,0,0,0,0,-0.0231,-0.0231,0,-0.0251,-0.0251,-0.0251,-0.0213,-0.0212,-0.0211,-0.021,-0.0232,-0.0234,-0.0236,0,0,0,0,0,0,0,0,0,0,0,0,0,-0.0162,-0.0164,-0.0231,-0.0231,-0.0231,-0.0251,-0.0251,-0.0251,-0.0214,-0.0212,-0.0211,-0.0209,-0.0232,-0.0234,-0.0236,0,0,0,0,0,0,0,0,0,0,0,0,0,-0.0188,-0.0164,-0.0231,-0.0215,-0.0214,-0.0251,-0.0251,-0.0251,-0.0214,-0.0212,-0.021,-0.0208,-0.0231,-0.0234,-0.0236,-0.0291,0,0,-0.0245,-0.0246,0,0,0,0,0,0,0,0,-0.0187,-0.0191,-0.0217,-0.0216,-0.0215,-0.0228,-0.0235,-0.0265,-0.0214,-0.0214,-0.021,-0.0208,-0.0233,-0.0235,-0.0243,-0.0292,-0.0293,-0.0245,-0.0246,-0.0248,-0.0248,0,0,0,0,0,0,0,-0.0185,-0.019,-0.0239,-0.0217,-0.0216,-0.0207,-0.0209,-0.024,-0.0234,-0.0214,-0.0211,-0.0214,-0.0232,-0.024,-0.0243,-0.0293,-0.0245,-0.0247,-0.0249,-0.025,-0.0387,-0.0389,0,0,0,0,0,0,-0.0185,-0.0188,-0.0238,-0.0239,-0.0196,-0.021,-0.0212,-0.0225,-0.0233,-0.0233,-0.0215,-0.0212,-0.0237,-0.024,-0.0244,-0.0309,-0.0247,-0.025,-0.0252,-0.0385,-0.0388,-0.039,0,0,0,0,0,0,-0.0183,-0.019,-0.0237,-0.0213,-0.0218,-0.0213,-0.0229,-0.0227,-0.0236,-0.0234,-0.0233,-0.0226,-0.0235,-0.024,-0.0279,-0.0309,-0.0251,-0.0254,-0.0383,-0.0386,-0.0389,-0.0439,0,0,0,0,0,0,-0.0182,-0.0189,-0.021,-0.0214,-0.022,-0.0272,-0.0231,-0.0229,-0.024,-0.0236,-0.0244,-0.0243,-0.0234,-0.0275,-0.0282,-0.0312,-0.0256,-0.038,-0.0384,-0.0388,-0.0434,-0.0443,-0.045,0,0,0,0,0,-0.0179,-0.0223,-0.0211,-0.0217,-0.0245,-0.0274,-0.0278,-0.0266,-0.0243,-0.0263,-0.0262,-0.0243,-0.0304,-0.028,-0.0287,-0.0318,-0.0378,-0.0383,-0.0388,-0.0431,-0.0441,-0.045,0,0,0,0,0,0,-0.0224,-0.0224,-0.021,-0.0256,-0.0265,-0.0268,-0.0294,-0.0277,-0.0294,-0.0289,-0.0274,-0.0276,-0.0319,-0.0322,-0.0295,-0.0371,-0.0337,-0.0344,-0.0368,-0.0378,-0.0386,-0.0385,-0.0258,0,0,0,0,0,-0.0239,-0.0262,-0.026,-0.0301,-0.0306,-0.0299,-0.0311,-0.0301,-0.031,-0.0314,-0.0316,-0.0326,-0.0348,-0.0362,-0.0382,-0.0433,-0.0435,-0.0458,-0.0466,-0.0473,-0.0479,-0.0507,-0.0518,-0.0405,-0.0405,-0.0405,0,0,-0.0271,-0.0273,-0.0289,-0.031,-0.0316,-0.0341,-0.0303,-0.0331,-0.0349,-0.0319,-0.0356,-0.0358,-0.0368,-0.0414,-0.0434,-0.0417,-0.051,-0.0479,-0.0484,-0.0487,-0.0513,-0.0524,-0.0534,-0.0408,-0.0408,-0.0407,0,0,-0.0342,-0.0345,-0.0381,-0.0387,-0.0396,-0.039,-0.0398,-0.0403,-0.0403,-0.0439,-0.0417,-0.0439,-0.0476,-0.0484,-0.0493,-0.0566,-0.0549,-0.0573,-0.0616,-0.0644,-0.0653,-0.066,-0.0688,-0.0698,-0.0578,-0.0579,-0.0579,0,-0.0381,-0.0417,-0.0401,-0.043,-0.0441,-0.0413,-0.0449,-0.0455,-0.0471,-0.0479,-0.046,-0.0505,-0.051,-0.0558,-0.0576,-0.0583,-0.0593,-0.0573,-0.0652,-0.066,-0.0667,-0.0694,-0.0704,-0.0581,-0.0581,-0.0581,-0.0581,0,-0.0465,-0.049,-0.0517,-0.0532,-0.0545,-0.0578,-0.0567,-0.0583,-0.0571,-0.0567,-0.0605,-0.061,-0.063,-0.064,-0.0629,-0.0686,-0.0676,-0.0655,-0.0622,-0.0681,-0.0706,-0.0716,-0.0586,-0.0585,-0.0584,-0.0583,0,0,-0.0568,-0.0572,-0.0582,-0.0589,-0.0596,-0.0615,-0.0646,-0.0665,-0.0679,-0.069,-0.0717,-0.0747,-0.0728,-0.0738,-0.0727,-0.0751,-0.081,-0.0727,-0.0727,-0.0744,-0.0876,-0.0894,-0.0906,-0.0798,-0.08,-0.0801,-0.0875,0,-0.064,-0.0693,-0.0679,-0.0733,-0.0756,-0.0729,-0.0756,-0.0763,-0.0761,-0.0781,-0.0777,-0.0801,-0.0771,-0.0778,-0.08,-0.0799,-0.0837,-0.0793,-0.0824,-0.0826,-0.0826,-0.0918,-0.0937,-0.1008,-0.0885,-0.0886,-0.0887,0,-0.0732,-0.0746,-0.0802,-0.0804,-0.0814,-0.0838,-0.0855,-0.0873,-0.0881,-0.0877,-0.0888,-0.0873,-0.0904,-0.0868,-0.0911,-0.0881,-0.0893,-0.0894,-0.0896,-0.0901,-0.0862,-0.0928,-0.1029,-0.1041,-0.0902,-0.0901,-0.09,0,-0.0804,-0.0836,-0.0874,-0.088,-0.0884,-0.0902,-0.0904,-0.091,-0.0922,-0.0936,-0.0944,-0.0961,-0.0972,-0.0986,-0.0975,-0.095,-0.1021,-0.0984,-0.102,-0.1021,-0.1039,-0.1039,-0.1146,-0.1042,-0.1042,-0.1042,-0.1041,0,-0.0888,-0.0924,-0.0906,-0.093,-0.0969,-0.0952,-0.0991,-0.0991,-0.0996,-0.1019,-0.0995,-0.1018,-0.1001,-0.1023,-0.1014,-0.1052,-0.1056,-0.1055,-0.1053,-0.1059,-0.106,-0.1069,-0.1065,-0.1044,-0.1044,-0.1043,-0.1043,0,-0.0977,-0.0966,-0.1006,-0.1005,-0.1006,-0.1035,-0.1035,-0.1057,-0.1051,-0.1081,-0.1087,-0.1079,-0.1103,-0.1093,-0.1118,-0.1112,-0.1162,-0.1152,-0.1159,-0.1158,-0.1195,-0.1193,-0.1315,-0.1331,-0.1214,-0.1215,-0.1216,0,-0.1033,-0.1059,-0.1061,-0.1075,-0.1079,-0.1101,-0.1113,-0.1096,-0.111,-0.112,-0.1141,-0.1162,-0.1179,-0.1218,-0.1215,-0.1234,-0.1226,-0.1267,-0.1229,-0.1234,-0.1229,-0.1229,-0.1232,-0.1276,-0.1277,-0.1278,-0.1279,0,-0.1133,-0.1126,-0.1144,-0.1161,-0.1175,-0.1187,-0.1197,-0.121,-0.1194,-0.121,-0.1234,-0.1246,-0.1271,-0.1293,-0.1309,-0.1312,-0.1294,-0.1291,-0.1301,-0.1309,-0.1313,-0.1313,-0.1183,-0.1289,-0.1288,-0.1287,-0.1287,-0.1286,-0.1209,-0.1232,-0.1237,-0.1257,-0.1263,-0.1272,-0.1293,-0.129,-0.1309,-0.1328,-0.1316,-0.1344,-0.135,-0.137,-0.1376,-0.1398,-0.1382,-0.1395,-0.1399,-0.1404,-0.141,-0.1307,-0.14,-0.14,-0.14,-0.1399,-0.1399,0,-0.1311,-0.1312,-0.1331,-0.1345,-0.1362,-0.134,-0.135,-0.1366,-0.139,-0.1397,-0.1414,-0.1441,-0.1461,-0.1459,-0.1478,-0.1496,-0.1488,-0.1502,-0.1502,-0.1503,-0.1422,-0.1413,-0.1508,-0.1508,-0.1508,-0.1508,-0.1508,-0.1508,-0.1366,-0.1404,-0.1397,-0.1437,-0.1438,-0.1465,-0.1472,-0.1481,-0.1487,-0.1518,-0.1535,-0.1532,-0.1536,-0.1555,-0.1573,-0.1572,-0.1581,-0.1599,-0.1595,-0.152,-0.1509,-0.1499,-0.149,-0.16,-0.16,-0.1674,-0.1675,-0.1676]},{"header":{"parameterUnit":"m.s-1","parameterCategory":1,"la1":30.2991,"la2":30.254,"lo1":-89.0895,"lo2":-89.0444,"dy":0.0017,"dx":0.0017,"nx":28,"ny":28,"refTime":"2025-04-12T09:00:00:Z","depth":0,"parameterNumber":3,"parameterNumberName":"V-component_of_WINDS"},"data":[0,0,0,0,0,0,0,0,0,0,0,0,0,0,0,0,0,0,0,0,0,0,0,0,0,0,0,0,0,0,0,0,0,0,0,0,0,0,0,0,0,0,0,0,0,0,0,0,0,0,0,0,0,0,0,0,0,0,-4.8964,-4.8965,0,-4.9049,-4.905,-4.9051,-4.8979,-4.8976,-4.8973,-4.8971,-4.9054,-4.9058,-4.9063,0,0,0,0,0,0,0,0,0,0,0,0,0,-4.8736,-4.8741,-4.8964,-4.8965,-4.8967,-4.9049,-4.905,-4.9051,-4.898,-4.8976,-4.8973,-4.8969,-4.9052,-4.9058,-4.9064,0,0,0,0,0,0,0,0,0,0,0,0,0,-4.883,-4.8742,-4.8964,-4.8941,-4.894,-4.9049,-4.905,-4.9052,-4.8981,-4.8976,-4.8972,-4.8967,-4.905,-4.9057,-4.9065,-4.92,0,0,-4.9087,-4.9091,0,0,0,0,0,0,0,0,-4.8824,-4.8838,-4.8943,-4.8943,-4.8941,-4.8999,-4.9,-4.9101,-4.8982,-4.8965,-4.897,-4.8965,-4.9039,-4.9047,-4.9072,-4.9204,-4.9207,-4.9088,-4.9093,-4.9096,-4.9098,0,0,0,0,0,0,0,-4.8818,-4.8834,-4.8998,-4.8945,-4.8944,-4.8925,-4.8933,-4.9019,-4.9026,-4.8966,-4.8961,-4.8972,-4.9037,-4.9065,-4.9074,-4.9209,-4.9088,-4.9094,-4.9099,-4.9102,-4.9454,-4.9458,0,0,0,0,0,0,-4.8814,-4.8829,-4.8995,-4.9,-4.8871,-4.8932,-4.8942,-4.8985,-4.9025,-4.9026,-4.8976,-4.8969,-4.9055,-4.9065,-4.9077,-4.9237,-4.9096,-4.9103,-4.9107,-4.9449,-4.9455,-4.946,0,0,0,0,0,0,-4.881,-4.883,-4.8992,-4.8913,-4.8933,-4.8941,-4.899,-4.8989,-4.9017,-4.9032,-4.9033,-4.9004,-4.9052,-4.9066,-4.917,-4.9239,-4.9106,-4.9113,-4.9443,-4.9451,-4.9458,-4.956,0,0,0,0,0,0,-4.8804,-4.8829,-4.8881,-4.8915,-4.8937,-4.9085,-4.8995,-4.8994,-4.9031,-4.9022,-4.9058,-4.906,-4.9049,-4.9159,-4.9177,-4.9247,-4.9119,-4.9437,-4.9447,-4.9455,-4.955,-4.957,-4.9586,0,0,0,0,0,-4.8796,-4.8906,-4.8885,-4.8905,-4.9003,-4.9089,-4.9102,-4.9088,-4.9037,-4.9089,-4.9098,-4.9059,-4.9228,-4.917,-4.919,-4.9263,-4.9433,-4.9444,-4.9455,-4.9542,-4.9566,-4.9586,0,0,0,0,0,0,-4.8879,-4.891,-4.8886,-4.9011,-4.9049,-4.9077,-4.9143,-4.9114,-4.9165,-4.9155,-4.9135,-4.9144,-4.9253,-4.9268,-4.9203,-4.9395,-4.9322,-4.9337,-4.9382,-4.9404,-4.9422,-4.9416,-4.9125,0,0,0,0,0,-4.8912,-4.8981,-4.9004,-4.9112,-4.9132,-4.9134,-4.9171,-4.9158,-4.9195,-4.921,-4.9227,-4.9263,-4.9324,-4.9365,-4.9422,-4.9552,-4.9558,-4.9612,-4.963,-4.9644,-4.9658,-4.9727,-4.9751,-4.9496,-4.9496,-4.9496,0,0,-4.8981,-4.9007,-4.9051,-4.9129,-4.9156,-4.9227,-4.9148,-4.9226,-4.9277,-4.9221,-4.932,-4.9334,-4.9373,-4.949,-4.9543,-4.9506,-4.973,-4.9658,-4.967,-4.9676,-4.974,-4.9764,-4.9786,-4.9504,-4.9502,-4.9501,0,0,-4.9142,-4.9169,-4.9262,-4.9291,-4.9333,-4.9334,-4.9356,-4.939,-4.9397,-4.9497,-4.9456,-4.9516,-4.9622,-4.9651,-4.968,-4.9852,-4.9817,-4.9871,-4.9965,-5.0032,-5.0052,-5.007,-5.0131,-5.0153,-4.9884,-4.9885,-4.9885,0,-4.9222,-4.9328,-4.9313,-4.9394,-4.9429,-4.9382,-4.9475,-4.9503,-4.9562,-4.9586,-4.9545,-4.9677,-4.97,-4.9823,-4.9865,-4.989,-4.9914,-4.9867,-5.0051,-5.0069,-5.0085,-5.0142,-5.0165,-4.9891,-4.989,-4.989,-4.9889,0,-4.9424,-4.9498,-4.9567,-4.9626,-4.9669,-4.9756,-4.9752,-4.9797,-4.9779,-4.9784,-4.9885,-4.9911,-4.9973,-5.0001,-4.9984,-5.0121,-5.0097,-5.0054,-4.998,-5.0116,-5.0169,-5.0191,-4.99,-4.9898,-4.9896,-4.9894,0,0,-4.9641,-4.969,-4.9716,-4.9742,-4.9785,-4.9841,-4.9924,-4.9986,-5.0024,-5.0066,-5.0135,-5.0225,-5.0185,-5.0218,-5.0204,-5.0263,-5.0397,-5.0212,-5.0213,-5.0246,-5.0549,-5.0582,-5.0608,-5.0374,-5.0378,-5.0382,-5.0546,0,-4.9804,-4.9951,-4.9939,-5.0078,-5.0145,-5.0101,-5.0174,-5.0207,-5.0214,-5.0271,-5.0277,-5.0342,-5.0284,-5.0304,-5.036,-5.0369,-5.0458,-5.0357,-5.0437,-5.044,-5.0429,-5.0636,-5.067,-5.0824,-5.0567,-5.057,-5.0573,0,-5.0014,-5.0064,-5.021,-5.0242,-5.027,-5.0336,-5.0391,-5.0446,-5.0482,-5.0483,-5.0519,-5.0495,-5.0578,-5.0502,-5.0614,-5.0546,-5.0578,-5.0587,-5.0593,-5.06,-5.0515,-5.0648,-5.0873,-5.0896,-5.0606,-5.0603,-5.0601,0,-5.0157,-5.0261,-5.0361,-5.0385,-5.0425,-5.0472,-5.0491,-5.0523,-5.0561,-5.0608,-5.0632,-5.0687,-5.0718,-5.0761,-5.0752,-5.0698,-5.0867,-5.079,-5.0869,-5.0869,-5.0907,-5.0904,-5.114,-5.0927,-5.0927,-5.0927,-5.0926,0,-5.034,-5.0431,-5.0426,-5.0488,-5.0588,-5.0573,-5.0672,-5.0684,-5.0713,-5.0776,-5.074,-5.0799,-5.0784,-5.0842,-5.0835,-5.0929,-5.0943,-5.0945,-5.0942,-5.0948,-5.0948,-5.0969,-5.0958,-5.0933,-5.0931,-5.093,-5.0929,0,-5.0517,-5.0518,-5.0625,-5.0654,-5.0664,-5.0736,-5.076,-5.0818,-5.0821,-5.0901,-5.0918,-5.0923,-5.099,-5.0985,-5.1059,-5.1054,-5.1171,-5.1155,-5.1159,-5.1156,-5.1234,-5.1227,-5.1491,-5.1525,-5.1291,-5.1293,-5.1295,0,-5.0635,-5.0704,-5.0741,-5.0781,-5.0803,-5.0868,-5.0906,-5.0893,-5.0934,-5.098,-5.1032,-5.1095,-5.1145,-5.1253,-5.1262,-5.1319,-5.1304,-5.1392,-5.1312,-5.1316,-5.1305,-5.1301,-5.1307,-5.1408,-5.1411,-5.1413,-5.1415,0,-5.0842,-5.0839,-5.0896,-5.0954,-5.1,-5.1045,-5.1085,-5.1119,-5.111,-5.1157,-5.1225,-5.1264,-5.1341,-5.1404,-5.1457,-5.1474,-5.1443,-5.144,-5.1461,-5.1468,-5.1468,-5.1469,-5.1202,-5.1434,-5.1432,-5.1431,-5.143,-5.1429,-5.0993,-5.1052,-5.1087,-5.1152,-5.1181,-5.1219,-5.1275,-5.1285,-5.1342,-5.1405,-5.1393,-5.1469,-5.1502,-5.1571,-5.1594,-5.1652,-5.162,-5.1651,-5.1658,-5.1666,-5.1675,-5.1459,-5.1662,-5.1661,-5.1661,-5.166,-5.166,0,-5.1198,-5.1219,-5.1279,-5.1337,-5.1387,-5.1354,-5.1397,-5.1441,-5.1509,-5.1543,-5.1593,-5.1671,-5.1732,-5.1746,-5.1804,-5.1847,-5.1835,-5.1863,-5.186,-5.1864,-5.1701,-5.1677,-5.1873,-5.1873,-5.1872,-5.1872,-5.1872,-5.1872,-5.1311,-5.1409,-5.141,-5.1522,-5.1541,-5.1617,-5.1644,-5.1679,-5.1706,-5.1795,-5.1846,-5.1855,-5.188,-5.194,-5.1993,-5.1996,-5.2018,-5.2053,-5.205,-5.1897,-5.1876,-5.1855,-5.1833,-5.2058,-5.2058,-5.2208,-5.2209,-5.221]}]]